STARLINK-4522 (53388 NORAD) Tracking and Keplerian Element Data

This shows tracking and keplerian element data for the satellite.

Feedback or suggestion? Click here.




ElementValue
Catalog53388
NameSTARLINK-4522
Epoch Orbit1613
Epoch Day324.8827455
Epoch Year2022
RAAN132.7246
Inclination53.2164
Eccentricity0.000278
Argument of Perigee42.3854
Mean Anonmoly317.7352
Mean Motion15.08846593
Decay Rate-3.62E-06
L11 53388U 22097A 22324.88274550 -.00000362 00000+0 -46209-5 0 9997
L22 53388 53.2164 132.7246 0002780 42.3854 317.7352 15.08846593 16136



Live tracking and technical data element details for STARLINK-4522 (NORAD 53388). STARLINK-4522 can be tracked NOW for your location showing map with azimuth and elevation plus other details from your city location.







IsCatalogInMostPopularTable: catalog: 53388, numindb: 7
Update: records affected: 1



GetName: 53388 STARLINK-4522

Hit Count: updated at: Thu, 08 Dec 2022 20:15:08 GMT